Temperature
20 20 19 19 19 19 19 19 19 19 19 18 18 18 18 18 18 18 18 17 17 17 17 17 17 17 17 17 17 17 17 17 17 17 17 17 17 17 17 16 16 16 16
20 20 19 19 19 19 19 19 18 18 18 18 18 18 18 18 17 17 17 17 17 17 17 17 17 17 17 17 17 17 17 17 17 17 17 17 17 17 16 16 16 16 16
20 20 19 19 19 18 18 18 18 18 18 18 18 18 18 17 17 17 17 17 17 17 17 17 17 17 17 17 17 16 16 16 17 17 17 16 16 16 16 16 15 15 15
20 19 19 19 18 18 18 18 18 18 17 17 17 18 17 17 17 17 17 17 16 16 16 16 16 16 16 16 16 16 16 16 16 16 16 16 16 16 15 15 15 15 15
20 19 19 19 18 18 18 18 18 17 17 17 17 17 17 17 17 17 17 16 16 16 16 16 16 16 16 16 16 16 16 16 16 15 15 15 15 15 15 15 14 15 14
20 19 19 18 18 18 18 17 17 17 17 17 17 17 17 17 17 17 16 16 16 16 16 16 16 16 16 16 16 15 15 15 15 15 15 15 15 14 14 14 14 14 14
19 19 18 18 18 17 17 17 17 17 17 17 16 16 16 17 17 16 16 16 16 16 16 16 15 15 15 15 15 15 15 15 15 15 15 14 14 14 14 14 14 14 14
19 18 18 17 17 17 17 17 16 16 16 16 16 16 16 16 16 16 16 16 15 16 16 15 15 15 15 15 15 15 15 15 14 14 14 14 14 14 14 14 13 13 13
18 18 17 17 17 17 16 16 16 16 16 16 16 16 16 16 16 15 15 15 15 15 15 15 15 15 15 15 15 14 14 14 14 14 14 14 14 14 14 13 13 13 13
18 17 17 17 17 16 16 16 16 16 16 16 16 16 16 16 16 15 15 15 15 15 15 15 15 15 15 14 14 14 14 14 14 14 14 14 14 13 13 13 13 12 12
17 17 17 17 16 16 16 16 16 16 15 15 15 15 15 15 15 15 15 15 14 14 14 14 14 14 14 14 14 14 14 14 14 14 14 13 13 13 13 13 13 12 12
17 17 16 16 16 16 16 16 15 15 15 15 15 15 15 15 15 15 15 14 14 14 14 14 14 14 14 14 14 14 14 13 13 13 13 13 13 13 13 12 12 12 12
16 16 16 16 16 15 15 15 15 15 15 15 15 14 14 14 14 14 14 14 14 14 14 14 14 14 14 14 14 14 13 13 13 13 12 12 12 12 12 12 12 12 12
16 16 16 16 15 15 15 15 15 15 15 14 14 14 14 14 14 14 14 14 14 13 13 13 13 13 13 13 13 13 13 13 13 12 12 12 12 12 12 12 11 12 11
15 15 15 15 15 15 15 15 15 15 15 14 14 14 14 14 14 14 14 13 13 13 13 13 13 13 13 13 13 13 13 12 12 12 12 12 12 12 11 11 11 11 11
15 15 15 15 15 15 15 15 15 15 14 14 14 14 14 14 13 13 13 13 13 13 13 12 12 13 13 13 13 12 12 12 12 12 12 12 12 11 11 11 11 11 11
15 15 15 15 15 15 15 14 14 14 14 14 14 14 14 14 13 13 13 13 13 13 12 12 12 12 12 12 12 12 12 12 12 12 12 11 11 11 11 11 11 11 11
15 15 15 15 15 14 14 14 14 14 14 14 14 14 13 13 13 13 13 12 12 12 12 12 12 12 12 12 12 12 12 11 11 11 11 11 11 11 11 10 10 10 10
15 14 14 14 14 14 14 14 14 14 14 14 13 13 13 13 13 12 12 12 12 12 11 11 11 11 11 11 11 11 11 11 11 11 11 11 10 10 10 10 10 10 10
14 14 14 14 14 14 14 14 14 14 13 13 13 13 13 12 12 12 12 12 11 11 11 11 11 11 11 11 11 11 11 10 10 10 10 10 10 10 10 10 10 10 10
14 14 14 14 14 14 14 14 13 13 13 13 13 13 12 12 12 12 12 12 11 11 11 11 11 11 11 10 10 10 10 10 10 10 10 10 10 10 10 10 10 9 9
14 14 14 14 14 13 13 13 13 13 13 13 12 12 12 12 12 12 12 11 11 11 11 11 11 10 10 10 10 10 10 10 10 9 9 9 9 9 9 9 9 9 9
13 14 14 13 13 13 13 13 13 13 13 12 12 12 12 12 11 11 11 11 11 11 10 10 10 10 10 10 10 9 9 9 9 9 9 9 9 9 9 9 9 9 9
13 13 13 13 13 13 13 13 13 12 12 12 12 12 12 11 11 11 11 11 10 10 10 10 10 10 9 9 9 9 9 9 9 9 9 9 9 9 8 9 9 9 9
13 13 13 13 13 12 12 12 12 12 12 12 11 11 11 11 11 11 10 10 10 10 10 9 9 9 9 9 9 9 9 9 9 9 9 9 8 8 8 8 8 8 8
12 12 12 12 12 12 12 12 12 11 11 11 11 11 11 11 10 10 10 10 10 9 9 9 9 9 9 9 9 9 9 9 9 9 8 8 8 8 8 8 8 8 8
Wind_Speed
6 5 4 5 5 4 4 3 3 2 2 2 2 2 2 2 2 2 2 3 2 3 3 2 3 2 3 2 2 2 1 1 2 2 1 1 2 1 3 3 6 7 8
5 4 4 4 4 4 4 4 4 3 2 2 3 3 3 2 2 2 3 3 3 3 3 2 3 3 2 3 2 2 1 1 1 2 1 1 1 2 3 3 4 5 6
5 5 4 4 4 4 3 3 3 3 3 3 3 3 2 2 3 3 3 3 3 3 3 3 3 3 3 3 2 2 2 2 1 2 2 1 1 1 1 2 2 1 4
4 4 4 4 3 3 3 3 3 3 3 3 3 3 3 2 3 3 3 3 3 3 2 2 2 3 3 3 3 2 2 2 2 2 2 2 1 1 1 1 1 1 2
2 3 3 2 2 2 2 3 2 3 4 3 2 2 3 3 3 2 4 4 3 3 3 3 2 2 2 2 3 2 2 2 2 2 2 2 1 1 1 2 2 2 2
2 2 2 2 2 2 2 2 3 3 3 3 3 3 3 3 2 2 3 3 3 3 4 3 3 2 2 2 2 2 3 3 3 3 3 2 2 2 2 3 2 2 2
3 2 2 2 2 2 3 2 3 3 3 3 3 3 3 2 1 2 3 4 4 3 4 3 4 2 1 1 2 3 3 5 5 4 3 3 3 2 2 3 2 3 3
3 2 2 2 2 2 2 2 2 3 3 3 3 3 2 2 1 1 4 4 4 3 3 3 3 2 2 2 3 3 3 3 5 5 4 4 3 2 3 3 3 2 2
2 2 2 2 3 3 3 3 3 3 3 3 3 3 3 2 2 1 2 3 4 4 3 2 2 2 3 2 3 3 3 2 2 2 4 4 4 4 3 1 2 1 2
2 2 2 2 3 3 3 2 2 3 3 3 3 2 2 2 2 2 2 3 3 3 3 3 2 2 3 3 3 3 3 3 2 2 2 3 4 4 4 4 3 2 2
2 2 1 1 2 2 2 2 2 2 3 3 2 2 2 2 2 3 3 3 4 3 2 2 2 3 3 4 4 3 3 3 3 3 2 2 2 2 3 3 3 2 2
1 1 1 1 2 2 2 2 2 2 2 2 2 3 2 2 1 3 4 5 4 3 3 2 2 4 5 5 5 5 4 3 3 2 2 2 2 2 2 2 2 2 2
1 1 1 1 1 2 2 3 2 3 3 3 3 3 2 1 1 2 4 5 5 3 3 3 3 4 5 5 7 7 4 3 3 3 2 2 2 2 2 1 1 1 1
2 2 2 2 2 1 2 3 3 2 3 3 3 2 2 1 1 0 1 2 2 3 3 3 4 6 6 6 5 5 5 4 3 3 3 2 1 1 1 1 2 2 1
2 2 2 2 2 2 1 1 2 1 2 3 2 2 1 1 0 1 1 2 2 2 2 2 3 3 4 4 4 4 4 4 4 3 2 2 2 1 1 2 2 2 2
2 2 2 2 2 2 1 0 3 1 1 1 1 1 1 1 2 2 2 1 2 1 1 3 3 3 3 3 3 3 3 4 3 3 2 2 2 2 2 2 2 2 2
2 2 2 2 2 3 2 2 1 0 1 1 1 2 3 2 2 2 2 1 1 1 2 3 3 3 2 2 2 2 2 2 2 2 2 2 2 2 2 2 2 2 2
2 2 2 2 2 2 2 2 2 2 2 2 3 3 4 4 4 3 2 1 2 2 4 4 3 3 3 3 2 2 1 1 1 1 1 1 2 2 2 2 3 3 2
2 2 2 2 2 2 2 2 2 2 2 2 1 2 4 5 4 4 3 3 4 4 3 3 3 3 2 2 2 1 1 1 1 2 2 2 2 2 2 3 3 3 3
2 2 2 2 2 2 2 2 2 2 2 2 2 1 2 3 3 3 4 4 4 3 3 3 2 2 2 1 1 1 2 1 1 2 2 2 3 3 3 3 3 3 3
2 2 3 3 3 2 2 2 2 2 2 2 2 2 2 3 3 2 3 3 3 3 2 2 2 2 1 1 1 2 2 2 2 2 2 2 3 3 3 3 3 3 3
2 2 3 3 2 1 2 2 2 2 2 2 1 2 4 3 3 2 2 2 2 2 1 1 2 1 1 1 1 1 2 2 2 1 2 2 3 3 3 3 2 3 3
2 3 2 1 1 1 2 2 2 2 2 2 1 1 2 2 2 1 1 1 1 1 1 1 1 1 1 1 1 1 1 1 1 1 2 3 3 4 3 3 3 3 3
2 2 2 2 2 2 2 2 2 2 2 2 1 1 2 2 2 2 1 1 1 1 1 1 1 1 2 2 1 1 2 2 3 2 2 3 4 3 3 3 4 4 4
2 1 1 2 2 2 2 2 2 2 2 2 2 1 2 2 2 2 2 1 1 1 2 1 1 1 2 3 4 3 3 4 3 3 3 3 4 3 3 3 3 4 4
2 2 1 1 2 2 2 2 2 2 2 2 2 2 2 2 2 2 1 1 1 1 1 1 2 2 2 3 4 4 3 3 2 3 3 3 4 3 3 3 4 3 3
Wind_Direction
172 177 180 186 196 203 210 207 221 229 212 192 193 200 205 209 213 224 243 241 234 254 262 253 264 282 301 310 295 276 256 238 246 263 245 192 178 163 158 194 195 186 194
163 168 177 183 193 207 210 209 209 217 218 209 207 214 221 216 220 224 251 252 244 248 257 257 266 272 279 296 305 308 301 270 222 241 245 220 210 179 175 204 214 211 199
161 173 175 190 203 214 210 213 205 205 217 215 211 211 222 229 234 232 237 243 247 247 247 251 258 265 268 275 271 284 282 283 252 231 241 224 229 220 196 229 242 249 246
164 175 172 193 208 206 206 210 206 204 213 222 229 224 219 225 236 242 249 241 245 249 247 246 255 254 260 266 253 256 268 270 273 266 248 235 228 230 212 238 252 262 280
146 171 168 181 207 208 205 215 212 211 221 219 239 250 234 226 244 243 255 245 245 251 249 242 237 225 238 272 276 282 280 272 256 258 250 256 253 254 254 249 242 241 249
153 170 164 183 201 208 218 224 223 220 220 217 228 248 258 259 268 250 246 261 253 249 254 245 220 206 215 224 268 284 265 260 263 260 255 249 236 226 236 244 229 236 249
167 166 158 184 208 223 232 227 230 232 228 228 229 230 237 241 274 295 270 262 250 254 256 257 262 246 201 254 240 232 245 247 239 244 260 261 252 231 225 243 246 246 253
168 166 171 194 219 231 238 237 240 248 245 238 236 235 223 227 231 290 300 268 257 258 259 248 238 242 260 255 261 254 249 251 244 232 240 252 253 237 242 241 250 257 268
178 182 193 207 221 228 235 241 239 237 245 240 227 223 211 219 222 216 260 257 255 252 244 238 228 223 253 251 252 257 265 278 274 254 230 226 229 222 217 234 237 229 271
192 194 205 209 220 228 236 247 249 238 243 250 235 216 208 205 185 197 232 263 260 259 238 216 208 218 244 241 242 246 258 275 275 274 242 232 225 222 217 216 233 235 262
179 185 195 200 221 223 218 236 249 262 255 251 239 219 206 196 177 199 212 251 274 269 253 238 219 199 211 232 236 241 246 265 260 244 231 219 223 218 210 215 219 217 241
160 173 182 201 259 237 206 235 248 263 257 244 238 237 215 176 159 213 225 243 275 275 273 273 236 205 219 233 240 250 251 251 252 245 234 228 227 217 212 208 210 210 214
148 173 188 195 245 225 223 236 238 240 250 255 244 241 232 188 171 204 227 250 265 265 276 276 271 239 239 238 236 238 235 238 236 230 232 236 232 202 179 195 178 194 243
168 191 208 215 225 224 224 235 238 247 255 260 267 266 248 188 136 177 262 269 277 261 272 276 259 246 250 253 244 226 219 227 233 230 228 225 220 201 199 212 228 217 232
184 212 221 222 222 203 221 288 261 273 242 249 265 278 284 264 249 245 248 273 285 301 305 272 255 239 233 233 235 223 216 218 224 227 226 218 205 199 215 224 234 239 230
199 232 242 227 227 228 202 341 30 55 127 132 125 174 193 167 183 196 227 260 287 268 244 268 266 260 253 242 235 235 232 227 218 212 212 208 200 199 204 215 218 225 243
233 236 253 247 230 231 218 225 223 180 40 7 245 183 168 185 196 211 229 260 277 199 245 269 278 281 274 267 252 237 231 225 209 211 218 213 213 215 215 217 223 222 225
273 276 277 266 252 242 239 231 225 216 216 247 252 223 200 202 201 207 222 236 272 239 248 263 276 282 281 279 277 274 261 224 200 213 223 232 226 224 228 228 227 220 223
265 272 282 292 284 273 269 252 235 224 223 228 227 229 226 220 217 216 205 240 263 264 263 268 275 280 287 290 298 296 286 259 241 230 236 241 239 233 233 234 235 219 222
250 246 269 281 266 255 256 267 266 246 238 218 216 217 210 226 233 222 214 238 263 265 274 278 279 282 286 285 293 291 275 253 247 244 240 240 243 240 240 237 239 236 227
255 250 250 260 258 260 260 264 269 265 263 256 240 178 190 238 247 243 232 234 249 263 270 280 278 281 282 271 268 269 270 271 271 277 269 262 265 257 246 245 239 239 237
261 253 248 252 266 288 291 288 284 274 257 257 254 190 192 234 259 260 265 265 279 283 274 276 287 306 325 307 291 290 289 292 279 279 286 288 288 278 263 254 247 245 240
274 278 279 285 293 278 270 280 280 278 278 273 283 228 216 254 270 270 277 270 265 282 316 315 308 325 333 329 321 308 287 274 271 269 269 268 270 269 266 261 253 248 237
294 298 316 312 282 266 278 285 287 293 289 277 276 255 231 258 279 281 273 261 247 249 246 272 311 343 347 335 347 33 33 348 321 290 275 270 266 264 268 259 249 248 246
298 301 328 334 322 310 303 301 304 314 324 317 291 287 284 262 265 274 275 261 254 262 268 271 287 338 18 20 26 44 39 31 21 343 292 269 267 263 262 265 262 256 247
313 320 337 335 328 323 323 324 327 323 318 321 322 306 290 279 278 290 295 296 300 307 308 315 28 40 33 45 66 58 40 25 1 323 289 268 265 265 261 256 259 260 258
Height
1511 1512 1513 1514 1516 1517 1518 1519 1520 1521 1522 1522 1523 1523 1523 1523 1523 1523 1523 1523 1523 1524 1524 1524 1524 1524 1524 1524 1524 1524 1524 1525 1524 1524 1524 1524 1524 1524 1523 1523 1523 1523 1523
1509 1510 1511 1512 1514 1514 1515 1516 1517 1518 1519 1520 1520 1520 1520 1521 1521 1521 1521 1521 1521 1521 1521 1521 1521 1521 1521 1521 1521 1521 1522 1522 1522 1521 1521 1521 1521 1521 1521 1521 1520 1520 1520
1507 1508 1510 1510 1511 1512 1513 1514 1515 1515 1516 1517 1517 1517 1517 1518 1518 1518 1518 1519 1518 1518 1518 1518 1518 1518 1518 1518 1518 1519 1519 1519 1519 1519 1518 1518 1518 1518 1518 1518 1518 1518 1518
1506 1507 1507 1508 1510 1510 1511 1511 1512 1512 1513 1513 1514 1514 1514 1515 1515 1515 1516 1516 1515 1515 1515 1515 1515 1515 1515 1515 1515 1515 1516 1516 1515 1515 1515 1515 1515 1515 1515 1514 1515 1515 1515
1504 1505 1505 1506 1507 1508 1508 1509 1509 1509 1510 1511 1511 1511 1512 1512 1512 1512 1512 1512 1512 1512 1512 1512 1512 1512 1512 1512 1512 1512 1512 1512 1512 1512 1512 1511 1511 1511 1511 1511 1511 1512 1512
1502 1503 1503 1504 1504 1505 1505 1506 1506 1507 1507 1507 1507 1508 1508 1509 1509 1509 1509 1509 1508 1508 1508 1509 1509 1508 1508 1508 1508 1509 1509 1509 1509 1509 1509 1508 1508 1508 1508 1509 1509 1509 1509
1500 1501 1501 1501 1502 1502 1503 1503 1504 1504 1504 1504 1504 1504 1504 1505 1505 1505 1505 1505 1505 1504 1504 1505 1505 1504 1505 1505 1504 1505 1505 1505 1506 1506 1505 1505 1505 1505 1505 1505 1505 1506 1506
1498 1499 1499 1499 1499 1500 1500 1500 1500 1501 1501 1501 1501 1501 1501 1501 1501 1502 1502 1502 1501 1501 1500 1501 1501 1500 1501 1501 1501 1501 1501 1501 1501 1502 1501 1501 1502 1502 1502 1502 1502 1503 1503
1496 1496 1497 1497 1497 1497 1497 1497 1497 1497 1497 1497 1498 1498 1498 1498 1498 1497 1498 1498 1498 1497 1497 1497 1497 1497 1497 1498 1497 1497 1497 1497 1497 1498 1498 1498 1498 1498 1499 1499 1499 1500 1500
1493 1494 1494 1494 1494 1494 1494 1495 1495 1494 1494 1495 1495 1495 1495 1495 1494 1494 1494 1494 1494 1494 1494 1494 1494 1494 1494 1494 1494 1494 1494 1494 1494 1494 1494 1494 1495 1495 1495 1496 1496 1497 1497
1491 1491 1492 1492 1492 1492 1492 1492 1492 1492 1492 1491 1491 1491 1491 1491 1491 1491 1490 1490 1491 1491 1491 1490 1491 1491 1491 1491 1491 1491 1491 1491 1491 1491 1491 1492 1492 1492 1492 1493 1493 1494 1494
1488 1488 1489 1489 1489 1490 1490 1489 1489 1489 1489 1489 1489 1488 1488 1488 1488 1488 1487 1488 1488 1488 1487 1487 1487 1488 1488 1488 1488 1488 1488 1488 1488 1488 1489 1489 1489 1489 1489 1490 1490 1491 1491
1485 1485 1486 1486 1486 1487 1487 1487 1487 1487 1487 1487 1487 1486 1486 1486 1485 1485 1485 1485 1485 1484 1484 1484 1484 1484 1484 1484 1485 1484 1485 1485 1485 1485 1485 1486 1487 1486 1486 1487 1487 1488 1487
1482 1483 1483 1484 1484 1484 1485 1485 1485 1485 1485 1485 1485 1484 1484 1484 1483 1482 1482 1482 1481 1481 1481 1481 1481 1481 1481 1481 1481 1481 1481 1481 1482 1482 1483 1483 1484 1484 1484 1484 1484 1484 1485
1480 1481 1481 1482 1482 1482 1482 1483 1482 1482 1482 1482 1482 1482 1482 1481 1480 1480 1479 1479 1478 1478 1478 1477 1477 1477 1477 1477 1477 1477 1477 1478 1479 1479 1480 1480 1480 1480 1480 1481 1481 1481 1481
1478 1479 1479 1479 1480 1480 1480 1480 1480 1480 1480 1479 1479 1479 1479 1479 1478 1477 1477 1476 1476 1475 1475 1475 1475 1474 1474 1474 1474 1474 1474 1475 1475 1476 1476 1477 1477 1477 1477 1478 1478 1478 1478
1477 1477 1477 1477 1477 1478 1477 1477 1477 1477 1477 1477 1477 1477 1476 1476 1476 1475 1474 1474 1473 1473 1472 1472 1472 1472 1472 1471 1471 1471 1471 1471 1471 1472 1473 1474 1474 1474 1475 1475 1476 1476 1475
1476 1476 1476 1475 1475 1475 1475 1475 1475 1474 1474 1473 1474 1474 1474 1473 1473 1472 1472 1472 1471 1470 1470 1469 1469 1469 1469 1468 1468 1468 1468 1469 1469 1469 1470 1470 1471 1471 1471 1472 1472 1473 1473
1474 1474 1474 1474 1473 1473 1473 1473 1472 1472 1471 1471 1471 1471 1471 1471 1470 1470 1469 1469 1468 1468 1468 1467 1467 1466 1466 1465 1465 1465 1466 1466 1466 1466 1466 1467 1467 1468 1468 1469 1469 1470 1470
1471 1471 1472 1472 1471 1471 1471 1470 1470 1469 1469 1469 1468 1468 1468 1467 1467 1467 1467 1466 1466 1466 1465 1465 1464 1464 1463 1463 1463 1463 1462 1462 1462 1462 1463 1463 1464 1464 1465 1465 1466 1466 1467
1469 1469 1469 1469 1469 1469 1469 1468 1468 1468 1467 1467 1466 1466 1465 1465 1464 1464 1464 1464 1464 1463 1463 1462 1462 1461 1461 1460 1460 1460 1459 1459 1459 1459 1459 1460 1460 1461 1461 1462 1462 1463 1463
1467 1467 1467 1467 1467 1467 1466 1466 1466 1466 1465 1465 1464 1464 1463 1463 1462 1462 1461 1461 1461 1461 1460 1460 1459 1459 1458 1457 1457 1456 1456 1456 1456 1456 1456 1456 1457 1456 1457 1457 1458 1459 1460
1466 1466 1466 1465 1465 1464 1464 1464 1464 1463 1463 1462 1462 1461 1461 1461 1460 1460 1459 1459 1458 1458 1458 1457 1457 1456 1455 1455 1454 1454 1453 1452 1452 1452 1452 1452 1452 1452 1453 1453 1454 1455 1456
1464 1464 1464 1463 1463 1462 1462 1462 1461 1461 1460 1460 1459 1459 1458 1458 1458 1457 1457 1456 1456 1455 1455 1454 1454 1453 1453 1452 1451 1451 1450 1450 1449 1449 1448 1448 1448 1449 1449 1450 1450 1451 1452
1463 1463 1462 1461 1461 1460 1459 1459 1459 1458 1458 1457 1456 1456 1456 1455 1455 1454 1454 1453 1453 1452 1452 1451 1450 1450 1449 1449 1448 1447 1447 1446 1446 1445 1445 1445 1445 1445 1446 1446 1447 1447 1448
1461 1461 1460 1459 1459 1458 1457 1456 1456 1455 1454 1454 1454 1453 1453 1453 1452 1451 1451 1450 1449 1449 1448 1448 1447 1446 1446 1445 1444 1443 1443 1442 1442 1442 1441 1441 1441 1442 1442 1443 1443 1444 1444